• In Netherlands
  • List of Countries
  • For 7 days
  • Water Temperature
  • Satellite Maps
  • Weather Map
  • Weather Widgets
  • user-avatar
    Login

    Hourly Weather Korçe

    Today, 30 March, Thursday

    Time Temperature Precipitation Wind Pressure Humidity
    00:00 +4°C° 0 mm 2 mps 667 mmHg 66%
    01:00 +4°C° 0 mm 2 mps 666 mmHg 64%
    02:00 +4°C° 0 mm 2 mps 666 mmHg 64%
    03:00 +3°C° 0 mm 2 mps 666 mmHg 64%
    04:00 +3°C° 0 mm 2 mps 666 mmHg 65%
    05:00 +5°C° 0 mm 2 mps 667 mmHg 63%
    06:00 +6°C° 0 mm 2 mps 667 mmHg 62%
    07:00 +8°C° 0 mm 2 mps 668 mmHg 58%
    08:00 +10°C° 0 mm 2 mps 668 mmHg 53%
    09:00 +13°C° 0 mm 2 mps 669 mmHg 47%
    10:00 +14°C° 0 mm 3 mps 670 mmHg 41%
    11:00 +14°C° 0 mm 3 mps 670 mmHg 39%
    12:00 +16°C° 0 mm 3 mps 670 mmHg 37%
    13:00 +17°C° 0 mm 3 mps 670 mmHg 35%
    14:00 +16°C° 0 mm 3 mps 669 mmHg 37%
    15:00 +16°C° 0 mm 3 mps 669 mmHg 39%
    16:00 +16°C° 0 mm 3 mps 669 mmHg 41%
    17:00 +12°C° 0 mm 3 mps 669 mmHg 50%
    18:00 +10°C° 0 mm 2 mps 668 mmHg 59%
    19:00 +8°C° 0 mm 2 mps 668 mmHg 67%
    20:00 +7°C° 0 mm 2 mps 668 mmHg 69%
    21:00 +7°C° 0 mm 2 mps 668 mmHg 71%
    22:00 +6°C° 0 mm 2 mps 669 mmHg 72%
    23:00 +6°C° 0 mm 2 mps 669 mmHg 75%

    Tomorrow, 31 March, Friday

    Time Temperature Precipitation Wind Pressure Humidity
    00:00 +6°C° 0 mm 2 mps 669 mmHg 77%
    01:00 +5°C° 0 mm 2 mps 669 mmHg 79%
    02:00 +5°C° 0 mm 2 mps 669 mmHg 81%
    03:00 +5°C° 0 mm 2 mps 669 mmHg 82%
    04:00 +4°C° 0 mm 2 mps 669 mmHg 84%
    05:00 +5°C° 0 mm 2 mps 669 mmHg 81%
    06:00 +6°C° 0 mm 2 mps 670 mmHg 78%
    07:00 +7°C° 0 mm 2 mps 670 mmHg 74%
    08:00 +9°C° 0 mm 2 mps 671 mmHg 67%
    09:00 +12°C° 0 mm 2 mps 671 mmHg 59%
    10:00 +14°C° 0 mm 2 mps 672 mmHg 51%
    11:00 +15°C° 0.1 mm 2 mps 672 mmHg 49%
    12:00 +15°C° 0.1 mm 2 mps 672 mmHg 47%
    13:00 +16°C° 0.1 mm 2 mps 672 mmHg 45%
    14:00 +15°C° 0.3 mm 2 mps 671 mmHg 47%
    15:00 +15°C° 0.3 mm 2 mps 671 mmHg 50%
    16:00 +14°C° 0.3 mm 2 mps 670 mmHg 53%
    17:00 +12°C° 0.1 mm 1 mps 670 mmHg 62%
    18:00 +10°C° 0.1 mm 1 mps 670 mmHg 70%
    19:00 +8°C° 0.1 mm 1 mps 669 mmHg 79%
    20:00 +7°C° 0 mm 1 mps 669 mmHg 81%
    21:00 +7°C° 0 mm 1 mps 669 mmHg 83%
    22:00 +6°C° 0 mm 1 mps 669 mmHg 84%
    23:00 +6°C° 0 mm 1 mps 669 mmHg 85%

    Day after tomorrow, 1 April, Saturday

    Time Temperature Precipitation Wind Pressure Humidity
    00:00 +5°C° 0 mm 1 mps 669 mmHg 86%
    01:00 +5°C° 0 mm 1 mps 669 mmHg 86%
    02:00 +5°C° 0 mm 1 mps 668 mmHg 86%
    03:00 +4°C° 0 mm 1 mps 668 mmHg 87%
    04:00 +4°C° 0 mm 1 mps 668 mmHg 87%
    05:00 +5°C° 0 mm 1 mps 668 mmHg 83%
    06:00 +7°C° 0 mm 1 mps 669 mmHg 78%
    07:00 +8°C° 0 mm 1 mps 669 mmHg 74%
    08:00 +10°C° 0 mm 1 mps 670 mmHg 65%
    09:00 +12°C° 0 mm 1 mps 670 mmHg 56%
    10:00 +15°C° 0 mm 1 mps 671 mmHg 46%
    11:00 +15°C° 0 mm 1 mps 671 mmHg 43%
    12:00 +16°C° 0 mm 1 mps 671 mmHg 41%
    13:00 +18°C° 0 mm 1 mps 670 mmHg 38%
    14:00 +16°C° 0.1 mm 2 mps 670 mmHg 41%
    15:00 +15°C° 0.1 mm 2 mps 669 mmHg 45%
    16:00 +14°C° 0.1 mm 2 mps 669 mmHg 48%
    17:00 +12°C° 0 mm 2 mps 668 mmHg 60%
    18:00 +10°C° 0 mm 1 mps 668 mmHg 71%
    19:00 +7°C° 0 mm 1 mps 668 mmHg 82%
    20:00 +7°C° 0 mm 1 mps 668 mmHg 84%
    21:00 +7°C° 0 mm 1 mps 668 mmHg 85%
    22:00 +6°C° 0 mm 1 mps 668 mmHg 86%
    23:00 +6°C° 0 mm 1 mps 668 mmHg 87%

    2 April, Sunday

    Time Temperature Precipitation Wind Pressure Humidity
    00:00 +6°C° 0 mm 1 mps 668 mmHg 88%
    01:00 +4°C° 0 mm 2 mps 667 mmHg 88%
    02:00 +4°C° 0 mm 2 mps 667 mmHg 88%
    03:00 +3°C° 0 mm 2 mps 667 mmHg 88%
    04:00 +3°C° 0 mm 2 mps 667 mmHg 88%
    05:00 +5°C° 0 mm 1 mps 667 mmHg 81%
    06:00 +6°C° 0 mm 1 mps 668 mmHg 74%
    07:00 +8°C° 0 mm 1 mps 668 mmHg 67%
    08:00 +8°C° 0 mm 2 mps 668 mmHg 55%
    09:00 +10°C° 0 mm 2 mps 669 mmHg 43%
    10:00 +13°C° 0 mm 2 mps 669 mmHg 31%
    11:00 +13°C° 0 mm 3 mps 669 mmHg 29%
    12:00 +14°C° 0 mm 3 mps 669 mmHg 27%
    13:00 +14°C° 0 mm 3 mps 669 mmHg 25%
    14:00 +13°C° 0 mm 3 mps 669 mmHg 29%
    15:00 +13°C° 0 mm 3 mps 668 mmHg 33%
    16:00 +12°C° 0 mm 3 mps 668 mmHg 36%
    17:00 +10°C° 0 mm 3 mps 667 mmHg 44%
    18:00 +9°C° 0 mm 2 mps 667 mmHg 51%
    19:00 +7°C° 0 mm 2 mps 667 mmHg 59%
    20:00 +7°C° 0.1 mm 2 mps 666 mmHg 62%
    21:00 +6°C° 0.1 mm 2 mps 666 mmHg 66%
    22:00 +6°C° 0.1 mm 2 mps 666 mmHg 70%
    23:00 +5°C° 0.2 mm 2 mps 666 mmHg 73%

    3 April, Monday

    Time Temperature Precipitation Wind Pressure Humidity
    00:00 +5°C° 0.2 mm 2 mps 666 mmHg 77%
    01:00 +5°C° 0.2 mm 2 mps 665 mmHg 80%
    02:00 +5°C° 0.3 mm 2 mps 665 mmHg 82%
    03:00 +4°C° 0.3 mm 2 mps 665 mmHg 83%
    04:00 +4°C° 0.3 mm 2 mps 665 mmHg 85%
    05:00 +5°C° 0 mm 2 mps 665 mmHg 82%
    06:00 +5°C° 0 mm 2 mps 665 mmHg 79%
    07:00 +5°C° 0 mm 2 mps 665 mmHg 76%
    08:00 +7°C° 0.1 mm 2 mps 666 mmHg 69%
    09:00 +8°C° 0.1 mm 3 mps 666 mmHg 62%
    10:00 +9°C° 0.1 mm 3 mps 667 mmHg 55%
    11:00 +9°C° 0.5 mm 3 mps 666 mmHg 57%
    12:00 +9°C° 0.5 mm 2 mps 666 mmHg 60%
    13:00 +9°C° 0.5 mm 2 mps 666 mmHg 62%
    14:00 +9°C° 0.7 mm 2 mps 665 mmHg 66%
    15:00 +10°C° 0.7 mm 1 mps 665 mmHg 69%
    16:00 +9°C° 0.7 mm 1 mps 665 mmHg 72%
    17:00 +8°C° 0.7 mm 1 mps 665 mmHg 78%
    18:00 +7°C° 0.7 mm 1 mps 664 mmHg 84%
    19:00 +5°C° 0.7 mm 0 mps 664 mmHg 91%
    20:00 +4°C° 0.4 mm 0 mps 664 mmHg 92%
    21:00 +4°C° 0.4 mm 0 mps 664 mmHg 92%
    22:00 +4°C° 0.4 mm 0 mps 664 mmHg 93%
    23:00 +3°C° 0.1 mm 0 mps 664 mmHg 94%

    4 April, Tuesday

    Time Temperature Precipitation Wind Pressure Humidity
    00:00 +3°C° 0.1 mm 0 mps 664 mmHg 94%
    01:00 +3°C° 0.1 mm 0 mps 664 mmHg 95%
    02:00 +2°C° 0 mm 0 mps 664 mmHg 95%
    03:00 +3°C° 0 mm 1 mps 664 mmHg 94%
    04:00 +3°C° 0 mm 1 mps 663 mmHg 94%
    05:00 +4°C° 0 mm 1 mps 664 mmHg 90%
    06:00 +5°C° 0 mm 1 mps 664 mmHg 86%
    07:00 +6°C° 0 mm 1 mps 665 mmHg 82%
    08:00 +8°C° 0 mm 1 mps 665 mmHg 73%
    09:00 +10°C° 0 mm 1 mps 666 mmHg 64%
    10:00 +12°C° 0 mm 1 mps 667 mmHg 55%
    11:00 +12°C° 0.2 mm 1 mps 666 mmHg 54%
    12:00 +13°C° 0.2 mm 1 mps 666 mmHg 53%
    13:00 +13°C° 0.2 mm 2 mps 666 mmHg 51%
    14:00 +12°C° 0.6 mm 2 mps 666 mmHg 56%
    15:00 +12°C° 0.6 mm 2 mps 666 mmHg 61%
    16:00 +11°C° 0.6 mm 1 mps 665 mmHg 66%
    17:00 +9°C° 0.5 mm 1 mps 665 mmHg 73%
    18:00 +8°C° 0.5 mm 1 mps 665 mmHg 81%
    19:00 +6°C° 0.5 mm 1 mps 665 mmHg 88%
    20:00 +5°C° 0.3 mm 0 mps 665 mmHg 89%
    21:00 +4°C° 0.3 mm 0 mps 665 mmHg 90%
    22:00 +4°C° 0.3 mm 0 mps 665 mmHg 92%
    23:00 +3°C° 0.2 mm 0 mps 665 mmHg 92%
    Show more